Location: Unspecified
(44.0704°N, 88.6889°W)
Time: 00:05:35
(UTC+02:00)

Transit 2A - Pass Details

Date: 18 June 2019
Orbit: 600 x 958 km, 66.7° (Epoch: 21 October)

Event Time Altitude Azimuth Distance (km) Brightness Sun altitude
Rises 11:24:51 0° 268° (W) 3,635 9.0 -7.3°
Reaches altitude 10° 11:28:27 10° 288° (WNW) 2,688 8.5 -6.8°
Maximum altitude 11:32:25 17° 327° (NNW) 2,197 8.5 -6.3°
Drops below altitude 10° 11:36:20 10° 7° (N) 2,627 9.5 -5.8°
Sets 11:39:49 0° 27° (NNE) 3,518 10.9 -5.3°
